Wetbulb
70.53 73.56 77.14 77.22 77.24 77.03 77.09 77.91 77.32 76.94 77.46 77.56 77.64 77.22 77.17 76.89 77.02 77.47 77.09 77.07 77.23 77.06 77.23 76.97 77.35 77.20 77.37 76.89 76.49 76.65 76.65 76.82 76.11 76.24 76.61 76.82 76.64 77.01 77.75 77.12 76.76 75.37 76.77
71.64 73.92 76.90 77.54 77.20 77.12 77.50 77.83 77.47 77.39 77.46 77.39 76.91 77.39 77.28 77.18 77.23 77.38 77.19 76.82 77.04 77.08 77.16 77.26 77.28 77.06 76.93 76.98 76.94 76.54 76.68 77.23 77.04 76.29 76.28 76.61 76.55 76.72 77.11 76.20 75.88 75.33 76.24
71.85 74.11 75.14 77.44 77.03 76.79 77.17 77.56 77.07 77.15 77.01 76.51 76.79 76.95 77.17 76.92 77.20 77.36 77.30 76.96 77.14 76.93 77.07 76.96 77.18 77.30 77.34 76.90 76.90 76.82 76.87 77.07 77.06 76.39 76.67 74.77 74.68 76.95 76.66 76.88 76.87 76.34 75.77
72.15 72.72 74.21 77.12 77.24 76.66 76.74 77.26 77.16 76.74 76.30 75.93 76.56 77.32 76.96 77.07 77.17 77.14 76.94 76.76 76.84 76.99 76.87 76.94 77.01 76.81 76.63 76.64 76.75 76.40 76.24 76.55 77.72 76.76 74.12 74.18 74.47 76.86 76.72 76.61 76.37 76.00 75.86
71.16 72.72 73.81 76.90 76.95 76.29 76.51 76.84 76.94 76.59 75.50 75.22 76.91 77.44 77.08 77.25 77.32 77.08 77.04 77.12 77.21 77.01 77.08 76.34 75.68 75.19 74.86 74.94 75.19 75.07 75.00 74.50 75.22 75.11 72.08 71.89 72.71 75.88 76.22 76.11 76.16 76.00 75.70
71.73 72.59 75.71 76.19 76.32 76.19 76.44 76.28 75.92 76.23 75.57 76.23 76.64 77.24 77.11 77.20 76.87 76.82 77.43 77.25 77.07 76.47 76.08 75.63 75.80 75.68 75.05 74.61 74.86 74.40 74.94 76.00 74.75 73.46 71.33 74.18 73.01 76.12 76.55 76.28 76.01 75.61 75.30
71.53 72.57 74.12 76.98 76.67 76.38 76.56 76.68 76.17 74.91 75.88 76.61 76.95 77.27 77.12 76.93 77.16 77.37 77.42 76.95 77.09 77.12 76.59 76.21 75.49 75.35 75.51 75.30 75.28 75.22 75.16 76.66 73.34 70.66 70.79 71.66 73.05 76.82 75.64 75.12 75.18 74.86 74.79
70.79 72.20 73.53 75.66 76.09 76.10 76.33 76.27 76.40 76.27 76.40 76.91 77.32 77.19 77.15 77.12 77.29 77.49 77.48 77.23 76.60 76.71 76.97 76.37 75.65 75.65 75.65 75.69 75.97 75.95 76.42 77.58 73.40 71.46 71.28 72.13 76.01 77.07 75.21 74.99 74.62 74.56 74.96
71.46 71.36 71.36 72.44 74.23 75.72 76.05 76.36 76.28 76.34 76.36 76.92 77.01 76.89 77.04 77.21 77.35 77.77 77.31 76.87 76.44 76.88 76.24 75.77 75.57 75.71 75.88 76.21 76.93 77.44 77.01 77.02 72.84 71.98 72.15 71.95 76.32 75.66 75.13 75.94 75.37 75.28 75.22
69.93 70.00 69.04 69.61 70.32 71.97 72.56 76.18 76.36 76.28 76.32 76.71 76.78 76.60 77.03 77.12 77.67 77.65 77.70 77.27 76.55 76.33 76.27 75.88 75.80 75.82 75.96 76.37 76.68 77.23 77.46 76.58 73.83 71.67 73.06 73.37 76.83 75.86 75.40 75.14 74.66 73.47 73.91
68.85 68.87 68.35 68.72 68.83 70.55 72.28 74.32 76.04 76.59 76.26 76.16 75.12 76.56 76.29 73.25 74.66 75.20 76.32 76.65 76.52 76.61 76.36 76.33 76.30 76.57 76.74 77.12 77.73 77.70 77.00 74.51 73.44 71.36 71.60 75.36 76.83 75.63 75.27 75.02 74.41 74.33 75.11
66.96 68.16 67.97 68.43 68.80 69.55 72.99 72.32 72.10 72.85 71.77 72.11 72.45 73.91 74.16 72.23 72.52 74.52 75.89 76.85 76.55 76.66 76.69 76.80 76.91 77.16 76.88 73.90 72.66 74.69 73.57 73.51 73.06 71.13 70.54 75.96 76.74 75.61 75.19 75.05 74.84 75.27 75.15
67.14 68.11 68.05 67.85 68.72 69.64 70.37 70.81 71.06 70.96 71.91 71.75 72.43 72.72 72.45 72.19 71.49 73.07 72.64 73.18 72.86 74.80 73.78 73.96 73.92 74.24 74.38 72.96 72.22 71.48 71.81 72.68 71.04 70.87 71.88 76.23 77.28 76.31 75.72 75.46 75.60 75.54 75.53
66.57 67.37 67.44 67.95 68.77 69.34 69.66 69.06 69.18 69.93 69.81 70.49 71.24 71.39 71.24 71.47 70.22 69.99 70.61 71.22 71.13 71.87 71.26 71.94 71.26 71.03 71.42 72.05 70.97 71.21 71.41 71.89 69.03 68.93 71.65 76.76 77.56 77.59 76.60 76.23 76.37 76.05 75.80
65.33 66.43 67.69 67.79 67.62 68.32 67.90 66.90 67.14 67.06 68.01 69.05 71.38 72.22 71.71 69.22 68.41 68.30 69.42 70.43 70.89 70.97 71.01 70.97 70.58 71.21 70.63 71.27 71.26 70.28 68.92 70.63 68.33 68.98 70.22 77.08 76.82 77.35 77.89 76.98 76.72 76.78 76.63
65.98 66.44 67.78 67.61 68.02 67.78 66.43 65.78 66.10 66.41 67.40 68.83 70.72 71.37 70.45 69.12 69.99 69.00 69.29 70.24 70.13 70.93 71.97 71.57 71.49 71.32 71.55 71.74 69.95 67.96 69.61 68.90 68.00 67.69 69.29 71.32 76.45 76.58 77.30 77.71 78.16 78.00 77.65
66.56 66.78 68.25 68.47 68.75 67.66 69.22 66.28 67.40 67.98 69.41 70.13 70.97 70.59 71.50 71.30 70.83 71.65 69.86 70.95 71.16 69.94 70.21 69.83 71.67 71.28 71.43 71.39 68.28 67.56 68.90 68.72 68.67 68.41 68.52 69.86 72.86 76.88 76.87 76.81 77.92 77.52 78.19
67.27 67.08 68.14 69.88 68.95 68.34 69.08 70.32 68.41 71.11 70.24 70.66 70.67 70.03 70.78 71.28 71.93 70.98 70.66 69.75 69.53 70.80 70.40 69.15 69.59 70.35 71.08 66.96 67.02 67.30 68.21 68.52 68.98 69.59 69.87 70.00 70.78 71.45 70.08 72.21 76.68 77.67 77.99
66.75 67.45 67.86 67.62 68.37 68.23 68.51 70.39 70.74 71.49 71.63 70.93 70.18 70.20 69.73 70.74 72.67 69.28 64.90 65.02 68.80 71.69 67.84 68.03 70.22 69.53 70.76 67.77 68.38 67.13 66.68 68.13 68.69 71.83 71.21 71.64 70.55 69.83 69.43 71.32 73.30 76.67 77.30
67.17 68.38 68.71 68.00 68.13 67.86 68.93 69.64 68.64 68.79 69.01 69.58 69.52 70.09 71.38 69.76 72.44 69.69 69.89 68.83 69.21 71.43 67.79 65.26 66.34 69.18 71.64 68.98 69.51 68.25 66.99 65.59 67.98 69.32 70.62 72.00 71.60 72.00 70.94 71.08 72.25 74.38 76.99
68.78 69.49 69.66 68.42 68.61 68.76 67.70 67.79 67.72 67.43 67.79 68.31 68.78 70.09 70.69 71.85 72.84 71.24 70.84 71.49 71.18 71.48 70.29 67.49 69.94 71.25 69.96 70.92 67.68 65.40 66.61 68.32 65.58 66.92 69.37 69.11 69.94 70.99 71.67 71.61 72.99 73.24 74.28
68.21 69.11 69.14 68.94 69.01 69.15 67.97 67.89 68.04 68.30 67.77 68.54 68.88 69.71 69.91 71.48 72.40 72.74 71.22 69.30 71.08 71.29 70.49 70.20 69.93 69.00 69.80 69.49 65.75 65.00 62.15 64.45 65.56 66.00 67.99 69.05 68.35 70.42 71.95 72.45 71.65 73.36 73.88
67.72 68.20 68.85 68.55 68.99 69.39 68.51 68.04 68.88 69.88 68.30 69.43 69.26 69.37 69.95 71.28 70.81 71.75 70.81 70.91 70.52 71.82 70.16 70.83 69.90 69.36 68.96 70.04 70.00 65.29 61.93 61.15 63.58 67.73 67.88 69.59 69.32 69.33 69.52 70.14 71.96 72.55 72.91
67.68 69.25 69.19 68.52 69.84 69.46 68.64 68.02 67.75 67.72 66.44 68.46 69.86 70.15 70.56 71.02 70.85 71.59 70.43 71.70 71.37 71.53 70.88 69.78 72.59 70.17 69.23 67.50 70.18 70.90 67.77 65.97 63.26 63.94 65.68 67.81 68.96 69.86 69.25 70.66 71.31 71.70 72.35
68.98 69.52 69.19 68.82 69.73 69.32 68.75 68.19 68.37 67.16 67.90 69.61 68.69 69.17 69.07 69.57 71.85 72.22 71.21 70.15 72.04 70.35 70.60 70.90 71.71 70.66 71.24 70.09 69.76 69.46 67.53 67.81 65.51 63.64 59.99 64.14 67.25 68.56 70.10 69.10 70.79 72.49 72.42
68.70 69.37 70.11 68.66 68.76 69.29 69.91 69.47 68.16 67.75 67.92 69.06 68.09 67.40 68.21 69.79 70.50 72.07 72.53 71.67 70.76 71.87 71.34 70.59 70.47 71.69 70.97 70.94 71.06 70.28 68.43 66.90 66.54 64.16 63.03 65.00 65.09 67.57 70.29 72.33 73.36 73.09 73.06
MSLP
1015.13 1014.83 1014.77 1014.80 1014.91 1014.96 1015.01 1015.04 1015.18 1015.33 1015.37 1015.49 1015.58 1015.70 1015.98 1016.18 1016.16 1016.03 1016.22 1016.22 1016.34 1016.54 1016.75 1016.89 1016.99 1017.04 1017.17 1017.37 1017.30 1017.17 1017.22 1017.34 1017.54 1017.55 1017.55 1017.57 1017.69 1017.73 1017.66 1017.60 1017.67 1017.70 1017.77
1014.59 1014.72 1014.88 1014.89 1015.01 1015.05 1015.10 1015.24 1015.37 1015.53 1015.66 1015.75 1015.82 1015.84 1016.11 1016.27 1016.33 1016.30 1016.49 1016.56 1016.60 1016.74 1016.81 1016.97 1017.20 1017.28 1017.41 1017.63 1017.68 1017.53 1017.63 1017.68 1017.73 1017.71 1017.66 1017.85 1018.03 1018.08 1017.96 1018.00 1018.07 1018.10 1018.18
1014.74 1014.77 1014.95 1014.84 1015.11 1015.21 1015.27 1015.37 1015.56 1015.74 1015.90 1015.96 1016.03 1016.09 1016.33 1016.39 1016.51 1016.48 1016.63 1016.72 1016.73 1016.84 1016.92 1017.07 1017.28 1017.52 1017.60 1017.72 1017.67 1017.81 1017.96 1018.04 1018.17 1018.09 1018.11 1018.19 1018.19 1018.21 1018.29 1018.24 1018.18 1018.32 1018.35
1014.67 1014.93 1015.06 1015.15 1015.25 1015.34 1015.46 1015.52 1015.71 1015.93 1016.08 1016.19 1016.29 1016.25 1016.43 1016.48 1016.57 1016.62 1016.84 1016.89 1016.91 1016.97 1017.00 1017.12 1017.32 1017.58 1017.78 1017.86 1018.05 1018.19 1018.18 1018.23 1018.19 1018.31 1018.48 1018.38 1018.31 1018.38 1018.41 1018.49 1018.56 1018.57 1018.68
1014.91 1015.02 1015.14 1015.18 1015.33 1015.45 1015.60 1015.70 1015.89 1016.12 1016.31 1016.41 1016.43 1016.41 1016.45 1016.51 1016.63 1016.76 1016.97 1017.05 1017.14 1017.24 1017.23 1017.34 1017.51 1017.80 1018.04 1018.20 1018.28 1018.36 1018.46 1018.48 1018.35 1018.38 1018.71 1018.80 1018.74 1018.66 1018.73 1018.74 1018.79 1018.81 1018.83
1014.96 1015.10 1015.14 1015.25 1015.32 1015.50 1015.70 1015.88 1016.09 1016.27 1016.42 1016.52 1016.55 1016.56 1016.58 1016.60 1016.69 1016.89 1017.06 1017.18 1017.34 1017.47 1017.52 1017.54 1017.72 1017.92 1018.08 1018.15 1018.33 1018.49 1018.49 1018.34 1018.21 1018.28 1018.84 1018.78 1018.78 1018.87 1018.91 1018.88 1018.90 1018.96 1019.04
1015.10 1015.27 1015.25 1015.37 1015.42 1015.64 1015.86 1015.99 1016.17 1016.36 1016.49 1016.50 1016.57 1016.54 1016.57 1016.64 1016.77 1017.05 1017.17 1017.42 1017.51 1017.61 1017.73 1017.81 1017.93 1018.02 1018.13 1018.07 1018.21 1018.38 1018.39 1018.20 1018.27 1018.51 1018.86 1018.79 1018.68 1018.52 1018.74 1018.92 1018.97 1019.13 1019.28
1015.14 1015.46 1015.53 1015.60 1015.65 1015.74 1015.92 1016.11 1016.19 1016.32 1016.44 1016.45 1016.54 1016.53 1016.68 1016.79 1016.83 1017.17 1017.40 1017.56 1017.60 1017.74 1017.84 1017.94 1018.07 1018.11 1018.21 1018.15 1018.17 1018.32 1018.52 1018.23 1018.46 1018.74 1018.79 1018.61 1018.56 1018.75 1018.96 1019.03 1019.00 1019.08 1019.22
1015.38 1015.61 1015.81 1015.76 1015.89 1015.98 1016.05 1016.14 1016.24 1016.38 1016.49 1016.54 1016.52 1016.68 1016.80 1016.83 1016.97 1017.26 1017.54 1017.68 1017.75 1017.72 1017.90 1018.14 1018.23 1018.30 1018.24 1018.16 1018.25 1018.34 1018.51 1018.53 1018.76 1018.94 1018.97 1018.88 1018.85 1019.01 1019.10 1019.15 1019.21 1019.19 1019.15
1015.77 1015.84 1016.16 1016.30 1016.33 1016.36 1016.30 1016.18 1016.33 1016.45 1016.55 1016.60 1016.65 1016.85 1016.86 1016.99 1017.16 1017.49 1017.77 1017.88 1017.87 1017.95 1018.02 1018.22 1018.33 1018.40 1018.38 1018.21 1018.23 1018.48 1018.52 1018.52 1018.60 1018.76 1018.88 1018.87 1018.92 1018.76 1018.84 1018.91 1018.90 1018.93 1019.06
1016.16 1016.19 1016.32 1016.52 1016.67 1016.65 1016.49 1016.41 1016.47 1016.56 1016.61 1016.68 1016.86 1017.00 1017.09 1017.35 1017.53 1017.67 1017.98 1017.99 1018.06 1018.25 1018.22 1018.31 1018.31 1018.28 1018.34 1018.30 1018.10 1018.06 1018.26 1018.55 1018.61 1018.56 1018.70 1018.73 1018.80 1018.48 1018.49 1018.56 1018.70 1018.76 1018.86
1016.31 1016.38 1016.44 1016.55 1016.77 1016.81 1016.68 1016.72 1016.77 1016.74 1016.91 1016.98 1017.16 1017.39 1017.49 1017.80 1017.96 1017.96 1018.12 1018.11 1018.24 1018.32 1018.25 1018.27 1018.36 1018.24 1018.07 1018.26 1018.30 1018.16 1018.09 1018.03 1018.32 1018.47 1018.53 1018.64 1018.48 1018.29 1018.23 1018.30 1018.41 1018.62 1018.79
1015.94 1016.28 1016.47 1016.55 1016.70 1016.86 1016.96 1017.10 1017.03 1017.18 1017.11 1017.10 1017.37 1017.63 1017.73 1017.96 1018.05 1018.07 1018.19 1018.20 1018.34 1018.45 1018.39 1018.38 1018.59 1018.34 1018.07 1018.20 1018.10 1017.96 1017.97 1017.82 1017.83 1018.04 1018.29 1018.31 1018.21 1018.03 1018.06 1018.21 1018.36 1018.52 1018.63
1015.88 1015.94 1016.36 1016.55 1016.75 1016.86 1016.96 1017.10 1017.20 1017.30 1017.34 1017.51 1017.51 1017.60 1017.73 1017.91 1017.99 1018.12 1018.26 1018.27 1018.42 1018.51 1018.40 1018.44 1018.46 1018.34 1018.23 1017.91 1017.63 1017.48 1017.41 1017.49 1017.54 1017.92 1018.13 1018.14 1017.96 1017.79 1017.71 1017.96 1018.20 1018.44 1018.42
1015.70 1015.86 1016.26 1016.58 1016.85 1016.88 1016.95 1017.07 1017.29 1017.25 1017.40 1017.66 1017.60 1017.57 1017.50 1017.57 1017.90 1018.13 1018.52 1018.47 1018.43 1018.38 1018.38 1018.31 1018.42 1018.27 1018.02 1017.48 1017.24 1017.22 1016.88 1016.99 1017.37 1017.79 1017.91 1017.88 1017.99 1018.09 1018.04 1018.07 1018.04 1018.12 1018.24
1015.80 1015.99 1016.30 1016.63 1016.72 1016.84 1017.02 1017.11 1017.04 1017.03 1017.37 1017.63 1017.59 1017.57 1017.50 1017.59 1017.81 1018.14 1018.32 1018.25 1018.27 1018.29 1018.20 1018.07 1017.97 1018.02 1017.57 1017.04 1016.92 1017.11 1016.75 1016.93 1017.08 1017.33 1017.55 1017.75 1017.97 1018.07 1018.09 1018.02 1017.92 1017.92 1017.91
1015.39 1015.78 1016.14 1016.41 1016.58 1016.95 1016.96 1017.13 1017.05 1017.03 1017.06 1017.20 1017.32 1017.34 1017.21 1017.50 1017.53 1017.76 1018.05 1017.99 1018.21 1017.99 1017.92 1017.84 1017.82 1017.80 1017.23 1016.78 1017.08 1017.07 1017.06 1017.16 1017.59 1017.83 1017.72 1017.60 1017.62 1017.77 1018.03 1018.10 1017.99 1017.84 1017.59
1015.01 1015.67 1016.06 1016.23 1016.54 1016.84 1016.99 1016.79 1016.84 1016.92 1017.03 1017.08 1017.17 1017.35 1017.48 1017.44 1017.50 1017.72 1018.07 1018.25 1017.87 1017.97 1017.73 1018.03 1017.85 1017.54 1017.52 1017.12 1017.12 1017.16 1016.96 1017.10 1017.27 1017.21 1016.83 1017.13 1017.52 1017.79 1017.47 1017.36 1017.30 1017.40 1017.48
1014.56 1015.24 1015.77 1016.02 1016.26 1016.52 1016.72 1016.68 1016.79 1016.66 1016.91 1016.90 1016.96 1017.03 1017.40 1017.44 1017.31 1017.46 1018.04 1017.96 1017.98 1018.14 1017.84 1017.80 1017.77 1017.77 1017.77 1017.62 1017.50 1017.58 1017.21 1017.42 1017.44 1016.94 1016.71 1016.97 1017.34 1017.21 1016.90 1016.93 1017.35 1017.04 1017.19
1014.07 1014.89 1015.40 1015.63 1016.09 1016.31 1016.56 1016.81 1016.91 1016.91 1016.84 1016.82 1016.74 1016.70 1016.94 1017.20 1017.12 1017.13 1017.91 1017.94 1017.71 1018.00 1018.13 1017.78 1018.00 1017.63 1017.70 1017.68 1017.74 1017.87 1017.51 1017.48 1017.32 1017.30 1016.85 1016.47 1016.47 1016.42 1016.16 1016.51 1016.50 1016.83 1016.92
1013.87 1014.55 1014.99 1015.30 1015.78 1016.22 1016.56 1016.92 1017.10 1017.08 1016.98 1016.82 1016.56 1016.55 1016.79 1017.12 1017.12 1017.12 1017.75 1017.78 1017.70 1017.76 1017.97 1017.96 1018.09 1017.66 1017.69 1017.65 1017.71 1017.91 1017.37 1017.15 1017.56 1017.74 1017.68 1017.54 1017.02 1016.48 1016.06 1016.16 1016.30 1016.75 1016.91
1013.38 1014.13 1014.72 1014.83 1015.08 1015.67 1015.91 1016.13 1016.35 1016.52 1016.57 1016.46 1016.32 1016.52 1016.57 1016.95 1017.07 1017.08 1017.37 1017.63 1017.55 1017.77 1018.07 1018.05 1018.08 1018.10 1017.86 1017.78 1018.17 1018.62 1018.58 1017.89 1017.97 1017.91 1017.83 1017.48 1016.92 1016.28 1016.38 1016.27 1016.40 1016.58 1016.83
1012.98 1013.56 1014.04 1014.39 1014.57 1015.05 1015.38 1015.79 1015.99 1016.23 1016.54 1016.73 1016.70 1016.78 1016.55 1016.44 1016.88 1016.94 1016.98 1017.32 1017.61 1017.83 1017.89 1017.88 1018.09 1018.15 1018.16 1018.14 1018.01 1018.53 1019.02 1018.92 1018.43 1017.35 1017.35 1017.09 1016.77 1016.56 1016.31 1016.29 1016.07 1016.40 1016.80
1012.22 1013.01 1013.44 1014.00 1014.42 1014.57 1015.04 1015.60 1015.89 1016.14 1016.55 1016.43 1016.40 1016.24 1016.25 1016.26 1016.33 1016.64 1016.77 1017.06 1017.35 1017.64 1017.75 1017.77 1017.91 1018.08 1018.22 1018.39 1018.23 1018.15 1018.36 1018.56 1018.83 1018.64 1017.53 1017.02 1016.65 1016.52 1016.36 1016.00 1016.18 1016.18 1016.54
1011.68 1012.25 1012.95 1013.61 1014.10 1014.24 1014.63 1015.06 1015.55 1015.96 1016.11 1015.92 1015.97 1015.96 1016.05 1016.14 1016.04 1016.07 1016.42 1016.61 1016.98 1017.27 1017.52 1017.70 1017.69 1017.77 1018.04 1018.37 1018.53 1018.58 1018.49 1018.65 1018.83 1019.11 1018.78 1017.80 1017.05 1016.49 1016.17 1015.82 1015.86 1015.98 1016.39
1011.18 1011.94 1012.68 1013.33 1013.70 1013.95 1014.20 1014.66 1015.14 1015.64 1015.83 1015.83 1016.05 1016.26 1016.28 1016.23 1016.16 1015.94 1016.16 1016.49 1016.62 1016.77 1017.15 1017.37 1017.56 1017.65 1017.86 1018.20 1018.32 1018.46 1018.67 1019.00 1019.00 1019.03 1019.08 1018.22 1017.83 1017.15 1016.47 1016.15 1015.96 1016.04 1016.35
Wind_Speed
4 5 11 12 13 13 13 15 15 14 13 13 13 15 14 13 13 12 11 11 11 10 11 11 11 10 12 11 11 12 12 12 12 12 13 13 13 12 13 14 14 10 14
7 5 12 12 13 13 14 16 15 15 14 12 12 13 12 13 13 12 10 11 10 10 10 11 10 11 10 12 12 13 13 15 14 13 13 12 12 11 13 13 13 10 13
8 6 7 11 13 13 14 15 15 15 13 12 11 12 12 12 12 12 12 10 10 10 10 9 9 10 10 11 12 12 13 13 13 12 13 5 6 12 11 12 13 12 13
9 5 5 10 12 14 14 14 14 14 13 12 10 12 12 12 12 14 12 12 11 11 9 9 8 9 7 9 9 9 11 12 13 13 4 4 7 11 11 11 11 11 10
7 6 7 12 12 13 13 14 14 14 13 12 10 12 12 12 13 12 12 12 12 10 10 8 6 7 5 7 6 4 3 1 4 3 5 5 4 8 9 10 9 8 8
8 6 11 14 14 14 13 14 14 13 13 11 12 11 12 13 13 13 12 13 12 11 10 7 5 5 3 2 4 4 4 5 2 5 6 6 5 10 10 9 9 9 8
8 6 9 13 14 14 13 13 13 13 10 11 12 12 12 13 14 13 12 13 12 10 9 6 3 1 1 1 1 2 1 6 6 7 5 5 6 11 10 9 8 7 6
10 5 7 13 14 13 12 12 12 12 11 11 12 12 12 13 14 13 12 11 10 9 7 6 2 3 3 4 4 4 5 10 8 5 5 5 8 10 10 10 9 9 8
7 7 4 4 9 12 11 11 12 12 11 12 13 13 13 13 14 12 11 9 9 9 7 4 2 4 6 7 8 7 5 5 5 3 5 3 10 10 9 8 7 7 7
7 7 5 4 5 4 5 11 11 12 13 13 14 13 13 14 14 11 8 8 8 7 6 4 3 5 7 9 10 8 6 2 3 5 4 3 10 13 11 10 9 9 8
6 6 5 5 4 3 3 6 11 14 13 13 12 11 8 3 5 8 7 8 7 6 6 5 6 7 8 9 11 11 9 1 2 3 3 9 11 13 13 11 11 11 10
7 6 6 6 6 5 3 3 3 5 3 4 4 3 4 4 1 5 5 7 5 7 8 8 8 10 10 3 4 9 3 4 3 3 3 11 14 14 14 14 13 11 10
11 7 7 6 6 6 4 3 2 2 2 2 3 2 2 1 1 2 2 1 2 6 3 4 4 4 6 3 4 5 5 5 3 5 6 15 15 16 15 15 14 13 13
10 9 7 6 6 5 3 3 3 3 2 2 1 2 2 2 2 4 2 3 2 3 4 3 2 6 7 7 7 7 6 5 4 3 4 17 17 17 17 16 14 14 14
10 11 10 7 6 5 4 3 3 4 3 3 3 3 2 4 3 2 1 1 3 3 4 4 3 4 6 9 8 6 2 7 6 4 3 17 15 13 12 12 13 13 14
10 11 10 9 6 5 4 5 4 3 3 4 3 3 4 3 2 3 3 3 4 1 3 4 4 4 5 5 5 3 5 5 7 7 5 5 10 9 9 11 12 13 13
10 11 10 11 8 7 6 5 3 3 3 1 1 3 3 3 1 5 4 4 2 2 2 3 3 3 3 5 5 2 1 4 2 2 4 5 5 9 7 9 12 12 12
11 11 10 10 11 8 6 5 3 3 3 3 3 3 4 4 5 5 3 1 0 2 1 2 2 3 4 3 4 2 4 3 3 5 6 4 2 2 4 6 10 10 12
14 13 12 8 11 11 7 4 4 5 4 4 4 4 6 5 4 4 4 2 0 1 1 1 3 1 2 2 2 2 4 4 2 4 6 5 6 5 4 4 8 9 12
15 14 12 10 9 8 6 4 3 3 2 4 4 5 5 4 4 1 4 1 3 1 2 1 2 2 1 2 0 3 1 3 1 3 5 3 2 7 5 1 2 4 11
14 15 13 13 11 8 3 4 3 4 2 3 3 6 6 6 6 4 2 2 2 3 2 1 1 2 1 2 2 2 2 1 1 0 4 5 6 6 4 4 1 2 4
17 15 13 13 11 9 4 4 3 3 3 2 4 5 6 7 6 5 4 2 1 1 4 2 1 0 1 2 2 1 4 5 2 4 4 5 5 4 2 5 4 4 5
16 16 15 14 12 9 8 2 0 3 2 2 2 3 5 6 7 6 5 4 3 2 1 1 1 1 1 1 4 3 2 2 3 3 2 4 3 3 5 4 5 4 3
18 15 15 14 12 11 8 7 5 4 4 4 4 4 5 7 6 7 6 5 5 3 1 1 1 1 1 2 3 1 1 3 1 5 3 5 5 6 6 4 4 4 5
17 16 15 13 13 13 12 9 7 4 4 4 3 6 4 4 6 6 6 6 6 4 3 2 2 1 2 1 2 2 3 3 3 2 4 4 3 4 4 3 4 4 4
16 15 13 14 13 11 11 9 10 9 6 4 4 5 4 4 4 5 6 5 6 5 5 4 2 1 1 2 1 1 2 2 2 2 2 3 2 3 4 4 5 4 4
Wind_Direction
220 166 143 138 133 129 129 132 129 123 114 108 106 104 105 104 100 96 97 96 95 99 104 102 101 106 102 105 116 119 128 142 150 132 130 126 124 129 120 117 117 117 122
148 161 148 142 135 131 129 129 129 128 123 114 115 113 112 112 110 111 109 108 111 107 104 107 108 108 111 111 113 113 126 133 136 133 128 119 123 134 123 124 122 124 128
143 146 143 144 138 135 131 129 130 128 124 121 118 119 120 115 118 117 111 119 117 117 107 112 117 112 112 115 115 119 124 123 118 115 111 90 103 116 123 130 130 132 136
137 131 136 145 139 138 137 132 130 130 129 125 124 120 118 115 112 111 118 123 126 118 118 114 110 109 116 110 106 112 122 127 119 108 98 117 122 126 131 130 131 132 132
127 133 154 143 140 140 138 135 132 131 128 128 125 122 119 122 114 116 125 124 123 123 113 106 103 98 98 96 110 124 119 183 242 237 119 101 105 128 131 135 131 133 131
137 143 146 143 139 136 137 133 131 131 130 133 129 132 125 122 118 123 134 131 128 128 121 122 114 92 62 114 148 149 188 234 139 150 131 145 136 142 145 151 158 136 141
135 151 143 140 135 134 132 133 133 129 134 136 136 136 133 124 120 128 132 131 131 129 127 136 147 141 233 258 350 227 4 329 101 98 140 152 161 154 142 134 135 136 142
133 127 129 140 135 133 132 135 133 136 140 140 146 138 134 131 127 135 136 137 137 138 145 145 164 270 291 315 315 316 23 33 116 127 162 171 161 152 143 148 160 161 163
123 119 120 138 138 137 133 136 136 137 138 142 138 140 140 134 136 140 148 143 148 154 161 160 218 298 313 318 323 329 3 32 96 137 184 179 158 152 159 160 158 172 176
129 122 125 114 92 110 145 139 139 137 140 139 139 142 138 140 140 147 145 153 164 177 179 193 243 277 296 301 306 320 325 327 164 174 193 196 169 164 169 176 179 179 179
145 145 149 155 142 132 121 151 147 144 142 134 129 130 110 102 137 150 156 173 190 216 216 229 251 266 273 285 291 291 297 146 267 181 189 195 189 173 178 193 191 191 189
155 168 161 164 165 159 120 113 124 127 113 115 115 95 95 86 200 155 185 193 207 241 250 251 264 275 278 256 284 293 271 226 210 203 194 187 201 187 188 195 201 203 199
161 165 173 162 168 154 154 144 99 122 142 124 95 77 105 131 269 165 167 196 226 266 281 312 325 280 270 249 252 250 232 226 218 189 185 200 203 199 197 201 208 212 213
174 166 161 153 148 161 159 162 160 167 161 133 141 201 205 220 204 202 203 210 239 259 260 248 261 279 290 274 258 258 229 201 176 177 196 208 209 207 205 204 214 220 224
162 158 162 150 154 163 173 162 185 184 160 158 184 217 193 151 175 181 120 265 236 253 272 274 255 277 274 277 269 255 275 171 166 174 203 212 218 224 223 223 227 232 240
164 167 162 159 162 159 186 202 202 179 168 175 187 192 180 157 160 130 177 223 252 231 283 281 255 243 277 266 240 169 171 150 182 184 195 212 215 228 245 246 247 250 252
169 168 171 161 165 170 196 202 210 196 197 229 213 263 118 108 153 122 185 219 198 61 8 325 274 222 297 339 27 14 127 74 10 255 179 207 210 217 234 266 267 265 269
160 175 175 176 171 177 200 207 196 212 214 224 214 227 165 196 151 149 195 248 200 86 151 237 208 21 352 70 76 41 56 81 145 191 213 179 170 119 214 210 263 252 268
171 173 181 181 179 179 196 217 209 230 217 220 212 212 167 211 195 159 95 137 301 96 274 272 30 14 80 86 103 334 75 76 54 200 240 187 151 204 246 333 282 257 253
172 178 186 175 182 187 189 195 208 223 244 244 225 207 180 187 198 206 126 168 318 51 229 58 2 277 186 172 67 303 173 105 115 238 272 345 10 295 286 328 236 273 234
169 176 188 173 187 183 168 170 186 200 201 251 221 223 185 178 207 219 143 150 314 254 272 178 166 353 346 65 26 303 303 16 43 287 337 316 302 268 252 249 321 249 237
178 180 188 192 182 188 174 194 170 160 209 186 207 225 211 179 186 204 180 180 309 192 271 311 87 321 333 26 114 96 0 335 50 179 218 225 284 318 53 262 244 232 209
181 186 188 192 187 187 179 168 131 65 51 97 228 223 220 206 180 202 197 164 208 160 232 258 96 34 23 324 70 131 19 273 318 320 186 214 290 317 308 294 235 208 148
189 190 190 183 190 190 166 177 174 172 175 215 192 198 191 201 212 189 204 169 184 199 240 336 74 125 99 353 356 64 205 145 129 337 336 311 314 287 247 242 259 166 154
181 187 191 182 188 191 179 177 184 185 209 193 184 185 200 218 215 211 201 198 192 184 193 240 333 61 108 106 132 327 32 46 69 116 291 324 332 341 334 254 179 149 164
180 175 179 184 188 188 187 179 181 192 195 172 186 186 201 222 225 214 216 201 207 198 183 202 228 256 199 186 233 218 159 201 223 160 248 287 257 321 351 43 116 146 179